23-04-2022, 00:00:02,     34,    1.8,    5.9,   0.00,   0.00, 1004.2,   82.4, -999.0
23-04-2022, 00:00:12,      7,    1.0,    6.0,   0.00,   0.00, 1004.2,   82.7, -999.0
23-04-2022, 00:00:22,     33,    0.6,    6.0,   0.00,   0.00, 1004.2,   82.5, -999.0
23-04-2022, 00:00:32,     33,    0.2,    5.9,   0.00,   0.00, 1004.1,   82.5, -999.0
23-04-2022, 00:00:42,     44,    1.9,    5.9,   0.00,   0.00, 1004.1,   82.9, -999.0
23-04-2022, 00:00:52,     42,    0.9,    6.0,   0.00,   0.00, 1004.1,   82.8, -999.0
23-04-2022, 00:01:02,     19,    2.2,    6.0,   0.00,   0.00, 1004.2,   82.9, -999.0
23-04-2022, 00:01:12,     41,    2.3,    5.9,   0.00,   0.00, 1004.1,   83.0, -999.0
23-04-2022, 00:01:22,     38,    1.2,    5.9,   0.00,   0.00, 1004.2,   82.6, -999.0
23-04-2022, 00:01:31,     20,    1.9,    6.0,   0.00,   0.00, 1004.1,   82.9, -999.0
23-04-2022, 00:01:42,     33,    1.8,    6.0,   0.00,   0.00, 1004.1,   82.8, -999.0
23-04-2022, 00:01:52,     35,    0.5,    5.9,   0.00,   0.00, 1004.1,   82.7, -999.0
23-04-2022, 00:02:01,     34,    0.0,    5.9,   0.00,   0.00, 1004.0,   82.5, -999.0
23-04-2022, 00:02:11,     35,    0.0,    5.8,   0.00,   0.00, 1004.0,   82.6, -999.0
23-04-2022, 00:02:22,     36,    0.7,    5.9,   0.00,   0.00, 1004.1,   82.9, -999.0
23-04-2022, 00:02:31,      1,    0.6,    5.9,   0.00,   0.00, 1004.1,   83.0, -999.0
23-04-2022, 00:02:41,     32,    1.0,    5.9,   0.00,   0.00, 1004.1,   83.0, -999.0
23-04-2022, 00:02:51,     47,    1.0,    5.9,   0.00,   0.00, 1004.1,   82.9, -999.0
23-04-2022, 00:03:01,     47,    0.0,    5.8,   0.00,   0.00, 1004.0,   82.6, -999.0
23-04-2022, 00:03:11,     46,    0.8,    5.8,   0.00,   0.00, 1004.1,   82.9, -999.0
23-04-2022, 00:03:21,     46,    0.3,    5.9,   0.00,   0.00, 1004.0,   83.0, -999.0
23-04-2022, 00:03:31,     46,    0.0,    5.9,   0.00,   0.00, 1004.0,   82.8, -999.0
23-04-2022, 00:03:41,     46,    0.0,    5.9,   0.00,   0.00, 1004.0,   82.8, -999.0
23-04-2022, 00:03:51,     46,    0.0,    5.9,   0.00,   0.00, 1004.0,   82.9, -999.0
23-04-2022, 00:04:01,     15,    0.5,    6.0,   0.00,   0.00, 1004.1,   83.2, -999.0
23-04-2022, 00:04:11,     33,    1.3,    6.1,   0.00,   0.00, 1004.1,   83.3, -999.0
23-04-2022, 00:04:21,      4,    1.0,    6.0,   0.00,   0.00, 1004.1,   83.2, -999.0
23-04-2022, 00:04:31,      4,    0.0,    6.0,   0.00,   0.00, 1004.0,   82.7, -999.0
23-04-2022, 00:04:40,      5,    0.0,    5.9,   0.00,   0.00, 1004.0,   82.7, -999.0
23-04-2022, 00:04:51,      5,    0.0,    5.9,   0.00,   0.00, 1004.0,   82.8, -999.0
23-04-2022, 00:05:01,      5,    0.0,    6.0,   0.00,   0.00, 1003.9,   82.9, -999.0
23-04-2022, 00:05:10,      5,    0.1,    6.1,   0.00,   0.00, 1004.0,   83.3, -999.0
23-04-2022, 00:05:20,      6,    0.0,    6.1,   0.00,   0.00, 1004.0,   83.0, -999.0
23-04-2022, 00:05:31,     21,    1.0,    6.1,   0.00,   0.00, 1004.1,   83.2, -999.0
23-04-2022, 00:05:40,      0,    0.5,    6.1,   0.00,   0.00, 1004.0,   83.0, -999.0
23-04-2022, 00:05:50,     67,    0.5,    6.0,   0.00,   0.00, 1004.0,   83.0, -999.0
23-04-2022, 00:06:00,     22,    0.6,    6.0,   0.00,   0.00, 1004.0,   82.7, -999.0
23-04-2022, 00:06:10,     27,    1.1,    6.1,   0.00,   0.00, 1004.1,   82.8, -999.0
23-04-2022, 00:06:20,     27,    0.0,    5.9,   0.00,   0.00, 1003.9,   82.6, -999.0
23-04-2022, 00:06:30,     27,    0.0,    5.9,   0.00,   0.00, 1003.9,   82.7, -999.0
23-04-2022, 00:06:40,     28,    0.0,    6.0,   0.00,   0.00, 1003.9,   82.8, -999.0
23-04-2022, 00:06:50,     28,    0.0,    6.1,   0.00,   0.00, 1004.0,   82.9, -999.0
23-04-2022, 00:07:00,     42,    1.2,    6.1,   0.00,   0.00, 1004.1,   82.9, -999.0
23-04-2022, 00:07:10,     42,    0.4,    6.0,   0.00,   0.00, 1004.0,   83.0, -999.0
23-04-2022, 00:07:20,     42,    0.0,    5.9,   0.00,   0.00, 1003.9,   82.7, -999.0
23-04-2022, 00:07:30,     42,    0.0,    6.1,   0.00,   0.00, 1004.0,   82.9, -999.0
23-04-2022, 00:07:40,     30,    1.7,    6.1,   0.00,   0.00, 1004.1,   83.1, -999.0
23-04-2022, 00:07:49,     35,    1.3,    6.1,   0.00,   0.00, 1004.1,   82.8, -999.0
23-04-2022, 00:08:00,     35,    0.1,    6.1,   0.00,   0.00, 1004.1,   82.7, -999.0
23-04-2022, 00:08:10,     59,    1.7,    6.1,   0.00,   0.00, 1004.1,   82.9, -999.0
23-04-2022, 00:08:19,     31,    2.4,    6.1,   0.00,   0.00, 1004.1,   82.9, -999.0
23-04-2022, 00:08:30,     14,    2.0,    6.1,   0.00,   0.00, 1004.1,   82.7, -999.0
23-04-2022, 00:08:40,     20,    2.2,    6.0,   0.00,   0.00, 1004.1,   83.0, -999.0
23-04-2022, 00:08:49,     20,    0.2,    5.9,   0.00,   0.00, 1004.0,   82.6, -999.0
23-04-2022, 00:09:01,      9,    0.1,    5.9,   0.00,   0.00, 1004.1,   82.7, -999.0
23-04-2022, 00:09:09,     19,    0.4,    5.9,   0.00,   0.00, 1004.1,   82.6, -999.0
23-04-2022, 00:09:19,     35,    0.3,    6.0,   0.00,   0.00, 1004.1,   82.9, -999.0
23-04-2022, 00:09:29,     52,    1.0,    6.1,   0.00,   0.00, 1004.1,   83.2, -999.0
23-04-2022, 00:09:39,     51,    0.1,    6.1,   0.00,   0.00, 1004.0,   83.0, -999.0
23-04-2022, 00:09:49,     53,    0.6,    6.1,   0.00,   0.00, 1004.0,   83.4, -999.0
23-04-2022, 00:09:59,     58,    0.2,    6.1,   0.00,   0.00, 1004.0,   83.2, -999.0
23-04-2022, 00:10:09,     59,    0.1,    6.1,   0.00,   0.00, 1004.0,   83.1, -999.0
23-04-2022, 00:10:19,     58,    0.0,    6.1,   0.00,   0.00, 1004.0,   83.1, -999.0
23-04-2022, 00:10:29,     58,    0.0,    6.1,   0.00,   0.00, 1004.0,   83.0, -999.0
23-04-2022, 00:10:39,     58,    0.0,    6.1,   0.00,   0.00, 1003.9,   82.9, -999.0
23-04-2022, 00:10:49,     59,    0.0,    6.1,   0.00,   0.00, 1003.9,   82.9, -999.0
23-04-2022, 00:10:59,     59,    0.1,    6.2,   0.00,   0.00, 1004.0,   83.0, -999.0
23-04-2022, 00:11:09,     62,    0.0,    6.1,   0.00,   0.00, 1004.0,   82.9, -999.0
23-04-2022, 00:11:19,     40,    1.8,    6.2,   0.00,   0.00, 1004.0,   83.2, -999.0
23-04-2022, 00:11:28,     35,    1.0,    6.2,   0.00,   0.00, 1004.0,   83.3, -999.0
23-04-2022, 00:11:38,     41,    1.7,    6.1,   0.00,   0.00, 1004.0,   83.1, -999.0
23-04-2022, 00:11:49,     34,    2.6,    6.1,   0.00,   0.00, 1004.0,   82.8, -999.0
23-04-2022, 00:11:58,     29,    3.2,    6.1,   0.00,   0.00, 1004.0,   82.9, -999.0
23-04-2022, 00:12:08,     23,    1.3,    6.0,   0.00,   0.00, 1004.0,   82.8, -999.0
23-04-2022, 00:12:18,     27,    1.8,    6.0,   0.00,   0.00, 1004.0,   82.9, -999.0
23-04-2022, 00:12:28,      2,    0.2,    6.0,   0.00,   0.00, 1003.9,   82.6, -999.0
23-04-2022, 00:12:38,     18,    3.7,    6.0,   0.00,   0.00, 1004.0,   82.9, -999.0
23-04-2022, 00:12:48,     12,    3.6,    6.0,   0.00,   0.00, 1004.0,   83.1, -999.0
23-04-2022, 00:12:58,      0,    1.9,    6.0,   0.00,   0.00, 1004.0,   83.0, -999.0
23-04-2022, 00:13:08,      0,    0.4,    6.0,   0.00,   0.00, 1004.0,   82.8, -999.0
23-04-2022, 00:13:18,      0,    0.2,    6.0,   0.00,   0.00, 1003.9,   82.8, -999.0
23-04-2022, 00:13:28,      0,    0.0,    5.9,   0.00,   0.00, 1003.9,   82.8, -999.0
23-04-2022, 00:13:38,      0,    0.0,    6.0,   0.00,   0.00, 1003.9,   83.0, -999.0
23-04-2022, 00:13:48,     66,    0.2,    6.1,   0.00,   0.00, 1004.0,   83.1, -999.0
23-04-2022, 00:13:58,     17,    1.6,    6.2,   0.00,   0.00, 1004.0,   83.4, -999.0
23-04-2022, 00:14:07,      0,    2.1,    6.1,   0.00,   0.00, 1004.0,   83.2, -999.0
23-04-2022, 00:14:18,      3,    0.3,    6.1,   0.00,   0.00, 1003.9,   83.0, -999.0
23-04-2022, 00:14:28,      3,    0.0,    6.0,   0.00,   0.00, 1003.8,   82.9, -999.0
23-04-2022, 00:14:37,      4,    0.0,    6.1,   0.00,   0.00, 1003.8,   82.9, -999.0
23-04-2022, 00:14:48,     11,    1.3,    6.1,   0.00,   0.00, 1003.9,   83.2, -999.0
23-04-2022, 00:14:58,     67,    1.9,    6.2,   0.00,   0.00, 1004.0,   83.4, -999.0
23-04-2022, 00:15:07,     17,    3.3,    6.2,   0.00,   0.00, 1003.9,   83.3, -999.0
23-04-2022, 00:15:17,     12,    2.9,    6.1,   0.00,   0.00, 1004.0,   83.2, -999.0
23-04-2022, 00:15:28,     15,    0.9,    6.1,   0.00,   0.00, 1004.0,   83.3, -999.0
23-04-2022, 00:15:37,     27,    3.2,    6.1,   0.00,   0.00, 1003.9,   83.1, -999.0
23-04-2022, 00:15:47,      7,    3.1,    6.0,   0.00,   0.00, 1003.9,   83.0, -999.0
23-04-2022, 00:15:57,    358,    1.4,    6.0,   0.00,   0.00, 1003.9,   83.0, -999.0
23-04-2022, 00:16:07,    358,    0.0,    5.9,   0.00,   0.00, 1003.8,   82.8, -999.0
23-04-2022, 00:16:17,     49,    0.1,    6.0,   0.00,   0.00, 1003.8,   83.2, -999.0
23-04-2022, 00:16:27,     49,    0.0,    6.0,   0.00,   0.00, 1003.8,   83.1, -999.0
23-04-2022, 00:16:37,     51,    0.5,    6.1,   0.00,   0.00, 1003.9,   83.4, -999.0
23-04-2022, 00:16:47,     55,    1.3,    6.1,   0.00,   0.00, 1003.9,   83.4, -999.0
23-04-2022, 00:16:57,     36,    0.8,    6.1,   0.00,   0.00, 1003.9,   83.6, -999.0
23-04-2022, 00:17:07,      3,    1.1,    6.1,   0.00,   0.00, 1003.9,   83.4, -999.0
23-04-2022, 00:17:17,      9,    1.4,    6.1,   0.00,   0.00, 1003.9,   83.3, -999.0
23-04-2022, 00:17:27,     14,    2.9,    6.1,   0.00,   0.00, 1003.9,   83.3, -999.0
23-04-2022, 00:17:37,      6,    1.3,    6.1,   0.00,   0.00, 1003.9,   83.3, -999.0
23-04-2022, 00:17:46,    355,    1.1,    6.0,   0.00,   0.00, 1003.9,   83.2, -999.0
23-04-2022, 00:17:57,    357,    0.4,    6.0,   0.00,   0.00, 1003.9,   83.2, -999.0
23-04-2022, 00:18:07,    335,    0.3,    6.0,   0.00,   0.00, 1003.8,   82.9, -999.0
23-04-2022, 00:18:16,    343,    0.3,    6.0,   0.00,   0.00, 1003.9,   83.2, -999.0
23-04-2022, 00:18:26,     16,    1.8,    6.0,   0.00,   0.00, 1003.9,   83.3, -999.0
23-04-2022, 00:18:37,     13,    0.4,    6.0,   0.00,   0.00, 1003.9,   83.3, -999.0
23-04-2022, 00:18:46,      0,    0.6,    6.0,   0.00,   0.00, 1003.9,   83.4, -999.0
23-04-2022, 00:18:56,     35,    1.0,    6.1,   0.00,   0.00, 1003.9,   83.4, -999.0
23-04-2022, 00:19:06,     38,    0.8,    6.1,   0.00,   0.00, 1003.9,   83.4, -999.0
23-04-2022, 00:19:16,     40,    0.1,    6.0,   0.00,   0.00, 1003.8,   83.2, -999.0
23-04-2022, 00:19:26,     40,    0.8,    6.1,   0.00,   0.00, 1003.9,   83.7, -999.0
23-04-2022, 00:19:36,     40,    0.3,    6.0,   0.00,   0.00, 1003.8,   83.5, -999.0
23-04-2022, 00:19:46,     49,    0.0,    6.1,   0.00,   0.00, 1003.8,   83.3, -999.0
23-04-2022, 00:19:56,     16,    2.4,    6.1,   0.00,   0.00, 1003.9,   83.6, -999.0
23-04-2022, 00:20:06,    350,    2.3,    6.1,   0.00,   0.00, 1003.9,   83.6, -999.0
23-04-2022, 00:20:16,      8,    0.8,    6.1,   0.00,   0.00, 1003.9,   83.4, -999.0
23-04-2022, 00:20:26,      0,    0.0,    6.0,   0.00,   0.00, 1003.8,   83.1, -999.0
23-04-2022, 00:20:36,      8,    0.4,    6.1,   0.00,   0.00, 1003.9,   83.4, -999.0
23-04-2022, 00:20:46,     45,    0.8,    6.1,   0.00,   0.00, 1003.9,   83.5, -999.0
23-04-2022, 00:20:55,     62,    1.2,    6.0,   0.00,   0.00, 1003.9,   83.5, -999.0
23-04-2022, 00:21:06,     62,    0.4,    6.1,   0.00,   0.00, 1003.9,   83.6, -999.0
23-04-2022, 00:21:16,     20,    1.2,    6.0,   0.00,   0.00, 1003.9,   83.6, -999.0
23-04-2022, 00:21:25,     22,    0.3,    6.1,   0.00,   0.00, 1003.9,   83.5, -999.0
23-04-2022, 00:21:36,     23,    0.8,    6.1,   0.00,   0.00, 1003.9,   83.6, -999.0
23-04-2022, 00:21:45,     24,    0.0,    6.1,   0.00,   0.00, 1003.8,   83.3, -999.0
23-04-2022, 00:21:55,     30,    0.3,    6.0,   0.00,   0.00, 1003.8,   83.5, -999.0
23-04-2022, 00:22:05,     32,    0.4,    6.1,   0.00,   0.00, 1003.8,   83.6, -999.0
23-04-2022, 00:22:15,     32,    0.0,    6.1,   0.00,   0.00, 1003.8,   83.3, -999.0
23-04-2022, 00:22:25,     32,    0.0,    6.1,   0.00,   0.00, 1003.7,   83.3, -999.0
23-04-2022, 00:22:35,     35,    0.2,    6.2,   0.00,   0.00, 1003.8,   83.3, -999.0
23-04-2022, 00:22:45,     32,    0.5,    6.2,   0.00,   0.00, 1003.9,   83.6, -999.0
23-04-2022, 00:22:55,     12,    0.9,    6.2,   0.00,   0.00, 1003.9,   83.4, -999.0
23-04-2022, 00:23:05,     29,    0.7,    6.2,   0.00,   0.00, 1003.9,   83.5, -999.0
23-04-2022, 00:23:15,     31,    0.5,    6.2,   0.00,   0.00, 1003.9,   83.5, -999.0
23-04-2022, 00:23:25,     53,    0.2,    6.2,   0.00,   0.00, 1003.9,   83.1, -999.0
23-04-2022, 00:23:35,     53,    0.3,    6.2,   0.00,   0.00, 1003.9,   83.3, -999.0
23-04-2022, 00:23:45,     27,    0.4,    6.2,   0.00,   0.00, 1003.9,   83.4, -999.0
23-04-2022, 00:23:55,     10,    1.6,    6.2,   0.00,   0.00, 1004.0,   83.3, -999.0
23-04-2022, 00:24:05,     10,    0.7,    6.1,   0.00,   0.00, 1003.9,   83.3, -999.0
23-04-2022, 00:24:15,     58,    0.5,    6.1,   0.00,   0.00, 1003.9,   83.1, -999.0
23-04-2022, 00:24:25,     12,    1.0,    6.1,   0.00,   0.00, 1003.9,   83.4, -999.0
23-04-2022, 00:24:34,     11,    0.0,    6.1,   0.00,   0.00, 1003.8,   83.2, -999.0
23-04-2022, 00:24:45,     11,    0.0,    6.1,   0.00,   0.00, 1003.8,   83.1, -999.0
23-04-2022, 00:24:54,     11,    0.0,    6.1,   0.00,   0.00, 1003.8,   83.1, -999.0
23-04-2022, 00:25:04,     11,    0.0,    6.0,   0.00,   0.00, 1003.8,   83.3, -999.0
23-04-2022, 00:25:14,     12,    0.0,    6.2,   0.00,   0.00, 1003.8,   83.4, -999.0
23-04-2022, 00:25:24,     36,    0.1,    6.2,   0.00,   0.00, 1003.8,   83.5, -999.0
23-04-2022, 00:25:34,     36,    0.5,    6.2,   0.00,   0.00, 1003.9,   83.6, -999.0
23-04-2022, 00:25:44,     38,    0.1,    6.1,   0.00,   0.00, 1003.9,   83.3, -999.0
23-04-2022, 00:25:54,     38,    0.3,    6.1,   0.00,   0.00, 1003.8,   83.2, -999.0
23-04-2022, 00:26:04,     39,    0.2,    6.1,   0.00,   0.00, 1003.8,   83.2, -999.0
23-04-2022, 00:26:14,     39,    0.0,    6.1,   0.00,   0.00, 1003.8,   83.0, -999.0
23-04-2022, 00:26:24,     39,    0.0,    5.9,   0.00,   0.00, 1003.7,   83.0, -999.0
23-04-2022, 00:26:34,     38,    0.0,    6.1,   0.00,   0.00, 1003.7,   83.1, -999.0
23-04-2022, 00:26:44,     39,    0.0,    6.1,   0.00,   0.00, 1003.8,   83.2, -999.0
23-04-2022, 00:26:54,     39,    0.0,    6.1,   0.00,   0.00, 1003.8,   83.3, -999.0
23-04-2022, 00:27:04,     39,    0.0,    6.2,   0.00,   0.00, 1003.8,   83.4, -999.0
23-04-2022, 00:27:14,     41,    0.2,    6.2,   0.00,   0.00, 1003.8,   83.4, -999.0
23-04-2022, 00:27:24,     42,    0.5,    6.3,   0.00,   0.00, 1003.9,   83.6, -999.0
23-04-2022, 00:27:33,     42,    0.0,    6.2,   0.00,   0.00, 1003.8,   83.2, -999.0
23-04-2022, 00:27:43,     42,    0.0,    6.1,   0.00,   0.00, 1003.8,   83.2, -999.0
23-04-2022, 00:27:54,     41,    0.0,    6.2,   0.00,   0.00, 1003.8,   83.2, -999.0
23-04-2022, 00:28:03,     43,    0.0,    6.2,   0.00,   0.00, 1003.7,   83.2, -999.0
23-04-2022, 00:28:13,     43,    0.0,    6.2,   0.00,   0.00, 1003.8,   83.3, -999.0
23-04-2022, 00:28:24,     45,    0.0,    6.2,   0.00,   0.00, 1003.7,   83.2, -999.0
23-04-2022, 00:28:33,     32,    1.5,    6.3,   0.00,   0.00, 1003.9,   83.4, -999.0
23-04-2022, 00:28:43,     29,    1.2,    6.2,   0.00,   0.00, 1003.9,   83.5, -999.0
23-04-2022, 00:28:53,     41,    0.2,    6.2,   0.00,   0.00, 1003.8,   83.2, -999.0
23-04-2022, 00:29:03,     38,    1.3,    6.2,   0.00,   0.00, 1003.9,   83.2, -999.0
23-04-2022, 00:29:13,     61,    0.2,    6.2,   0.00,   0.00, 1003.8,   83.2, -999.0
23-04-2022, 00:29:23,     38,    2.8,    6.3,   0.00,   0.00, 1003.9,   83.3, -999.0
23-04-2022, 00:29:33,     26,    1.7,    6.3,   0.00,   0.00, 1003.9,   83.3, -999.0
23-04-2022, 00:29:43,     35,    0.6,    6.2,   0.00,   0.00, 1003.9,   83.5, -999.0
23-04-2022, 00:29:53,     38,    0.2,    6.2,   0.00,   0.00, 1003.8,   83.3, -999.0
23-04-2022, 00:30:03,     39,    0.2,    6.2,   0.00,   0.00, 1003.8,   83.4, -999.0
23-04-2022, 00:30:13,     20,    2.0,    6.2,   0.00,   0.00, 1003.9,   83.4, -999.0
23-04-2022, 00:30:23,     10,    1.4,    6.2,   0.00,   0.00, 1003.9,   83.4, -999.0
23-04-2022, 00:30:33,      7,    1.6,    6.2,   0.00,   0.00, 1003.9,   83.3, -999.0
23-04-2022, 00:30:42,      6,    0.5,    6.2,   0.00,   0.00, 1003.9,   83.3, -999.0
23-04-2022, 00:30:53,     21,    0.1,    6.1,   0.00,   0.00, 1003.8,   83.1, -999.0
23-04-2022, 00:31:03,      0,    0.4,    6.2,   0.00,   0.00, 1003.9,   83.4, -999.0
23-04-2022, 00:31:12,     26,    0.5,    6.2,   0.00,   0.00, 1003.8,   83.4, -999.0
23-04-2022, 00:31:22,     43,    0.3,    6.2,   0.00,   0.00, 1003.8,   83.5, -999.0
23-04-2022, 00:31:33,     26,    1.2,    6.2,   0.00,   0.00, 1003.9,   83.6, -999.0
23-04-2022, 00:31:42,     50,    2.2,    6.1,   0.00,   0.00, 1003.9,   83.5, -999.0
23-04-2022, 00:31:52,     50,    1.3,    6.2,   0.00,   0.00, 1003.9,   83.5, -999.0
23-04-2022, 00:32:02,     48,    0.5,    6.1,   0.00,   0.00, 1003.8,   83.3, -999.0
23-04-2022, 00:32:12,     47,    0.0,    6.0,   0.00,   0.00, 1003.7,   83.1, -999.0
23-04-2022, 00:32:22,     48,    0.0,    6.1,   0.00,   0.00, 1003.7,   83.1, -999.0
23-04-2022, 00:32:32,     48,    0.2,    6.1,   0.00,   0.00, 1003.8,   83.3, -999.0
23-04-2022, 00:32:42,     48,    0.3,    6.2,   0.00,   0.00, 1003.8,   83.5, -999.0
23-04-2022, 00:32:52,     49,    0.0,    6.2,   0.00,   0.00, 1003.8,   83.4, -999.0
23-04-2022, 00:33:02,     73,    0.7,    6.2,   0.00,   0.00, 1003.9,   83.8, -999.0
23-04-2022, 00:33:12,     64,    0.7,    6.3,   0.00,   0.00, 1003.9,   83.7, -999.0
23-04-2022, 00:33:22,     66,    0.1,    6.2,   0.00,   0.00, 1003.8,   83.5, -999.0
23-04-2022, 00:33:32,     69,    0.2,    6.2,   0.00,   0.00, 1003.9,   83.7, -999.0
23-04-2022, 00:33:42,     94,    1.6,    6.3,   0.00,   0.00, 1003.9,   83.8, -999.0
23-04-2022, 00:33:51,     34,    2.1,    6.2,   0.00,   0.00, 1003.9,   83.7, -999.0
23-04-2022, 00:34:02,     20,    1.8,    6.3,   0.00,   0.00, 1003.9,   83.8, -999.0
23-04-2022, 00:34:12,     23,    1.0,    6.2,   0.00,   0.00, 1003.9,   83.6, -999.0
23-04-2022, 00:34:21,     23,    0.2,    6.1,   0.00,   0.00, 1003.8,   83.4, -999.0
23-04-2022, 00:34:31,     36,    0.3,    6.2,   0.00,   0.00, 1003.8,   83.5, -999.0
23-04-2022, 00:34:42,      6,    1.0,    6.2,   0.00,   0.00, 1003.8,   83.7, -999.0
23-04-2022, 00:34:51,      0,    1.9,    6.2,   0.00,   0.00, 1003.8,   83.8, -999.0
23-04-2022, 00:35:01,     21,    1.1,    6.1,   0.00,   0.00, 1003.8,   83.8, -999.0
23-04-2022, 00:35:11,     22,    0.0,    6.1,   0.00,   0.00, 1003.7,   83.2, -999.0
23-04-2022, 00:35:21,      4,    1.6,    6.2,   0.00,   0.00, 1003.8,   83.7, -999.0
23-04-2022, 00:35:31,     16,    2.2,    6.3,   0.00,   0.00, 1003.8,   83.8, -999.0
23-04-2022, 00:35:41,      8,    1.9,    6.2,   0.00,   0.00, 1003.8,   83.8, -999.0
23-04-2022, 00:35:51,     10,    0.3,    6.1,   0.00,   0.00, 1003.7,   83.7, -999.0
23-04-2022, 00:36:01,     50,    0.3,    6.1,   0.00,   0.00, 1003.7,   83.5, -999.0
23-04-2022, 00:36:11,     50,    0.6,    6.2,   0.00,   0.00, 1003.7,   83.7, -999.0
23-04-2022, 00:36:21,     51,    0.0,    6.1,   0.00,   0.00, 1003.6,   83.6, -999.0
23-04-2022, 00:36:31,     51,    0.5,    6.2,   0.00,   0.00, 1003.8,   83.8, -999.0
23-04-2022, 00:36:41,     52,    1.0,    6.3,   0.00,   0.00, 1003.8,   83.9, -999.0
23-04-2022, 00:36:51,     52,    0.0,    6.2,   0.00,   0.00, 1003.7,   83.5, -999.0
23-04-2022, 00:37:00,     51,    0.0,    6.2,   0.00,   0.00, 1003.7,   83.7, -999.0
23-04-2022, 00:37:11,     51,    0.0,    6.2,   0.00,   0.00, 1003.7,   83.7, -999.0
23-04-2022, 00:37:21,     33,    0.8,    6.3,   0.00,   0.00, 1003.8,   84.1, -999.0
23-04-2022, 00:37:30,     26,    1.5,    6.4,   0.00,   0.00, 1003.7,   84.1, -999.0
23-04-2022, 00:37:41,     29,    0.6,    6.3,   0.00,   0.00, 1003.8,   83.9, -999.0
23-04-2022, 00:37:50,     43,    1.7,    6.3,   0.00,   0.00, 1003.8,   83.8, -999.0
23-04-2022, 00:38:00,     51,    0.9,    6.3,   0.00,   0.00, 1003.9,   83.7, -999.0
23-04-2022, 00:38:10,     34,    0.8,    6.3,   0.00,   0.00, 1003.8,   83.6, -999.0
23-04-2022, 00:38:20,     34,    0.0,    6.2,   0.00,   0.00, 1003.7,   83.5, -999.0
23-04-2022, 00:38:30,     42,    0.7,    6.3,   0.00,   0.00, 1003.8,   83.8, -999.0
23-04-2022, 00:38:40,     40,    2.0,    6.3,   0.00,   0.00, 1003.8,   84.0, -999.0
23-04-2022, 00:38:50,      0,    2.1,    6.3,   0.00,   0.00, 1003.8,   83.8, -999.0
23-04-2022, 00:39:00,     11,    1.0,    6.3,   0.00,   0.00, 1003.8,   83.6, -999.0
23-04-2022, 00:39:10,     11,    0.0,    6.2,   0.00,   0.00, 1003.7,   83.4, -999.0
23-04-2022, 00:39:20,      3,    0.1,    6.2,   0.00,   0.00, 1003.7,   83.6, -999.0
23-04-2022, 00:39:30,      0,    0.4,    6.2,   0.00,   0.00, 1003.8,   84.0, -999.0
23-04-2022, 00:39:40,      0,    0.0,    6.2,   0.00,   0.00, 1003.6,   83.5, -999.0
23-04-2022, 00:39:50,      7,    0.0,    6.2,   0.00,   0.00, 1003.6,   83.7, -999.0
23-04-2022, 00:40:00,     36,    0.8,    6.3,   0.00,   0.00, 1003.7,   83.8, -999.0
23-04-2022, 00:40:10,     29,    1.6,    6.3,   0.00,   0.00, 1003.8,   84.0, -999.0
23-04-2022, 00:40:20,     14,    1.0,    6.3,   0.00,   0.00, 1003.8,   83.9, -999.0
23-04-2022, 00:40:30,     14,    0.0,    6.2,   0.00,   0.00, 1003.7,   83.5, -999.0
23-04-2022, 00:40:39,     15,    0.4,    6.1,   0.00,   0.00, 1003.8,   83.6, -999.0
23-04-2022, 00:40:50,     14,    0.9,    6.2,   0.00,   0.00, 1003.8,   83.7, -999.0
23-04-2022, 00:40:59,     51,    1.3,    6.2,   0.00,   0.00, 1003.8,   83.7, -999.0
23-04-2022, 00:41:09,     12,    0.8,    6.2,   0.00,   0.00, 1003.7,   83.7, -999.0
23-04-2022, 00:41:19,    354,    3.9,    6.1,   0.00,   0.00, 1003.8,   83.7, -999.0
23-04-2022, 00:41:29,    356,    1.3,    6.2,   0.00,   0.00, 1003.8,   83.7, -999.0
23-04-2022, 00:41:39,      0,    0.3,    6.2,   0.00,   0.00, 1003.7,   83.8, -999.0
23-04-2022, 00:41:49,      0,    0.2,    6.1,   0.00,   0.00, 1003.7,   83.8, -999.0
23-04-2022, 00:41:59,     22,    1.2,    6.2,   0.00,   0.00, 1003.8,   84.0, -999.0
23-04-2022, 00:42:09,      0,    3.3,    6.2,   0.00,   0.00, 1003.8,   84.1, -999.0
23-04-2022, 00:42:19,     40,    1.5,    6.1,   0.00,   0.00, 1003.7,   84.1, -999.0
23-04-2022, 00:42:29,     22,    0.8,    6.2,   0.00,   0.00, 1003.7,   84.0, -999.0
23-04-2022, 00:42:39,     29,    0.3,    6.2,   0.00,   0.00, 1003.7,   84.3, -999.0
23-04-2022, 00:42:49,      9,    0.0,    6.1,   0.00,   0.00, 1003.7,   84.1, -999.0
23-04-2022, 00:42:59,     10,    0.0,    6.2,   0.00,   0.00, 1003.7,   84.0, -999.0
23-04-2022, 00:43:09,     12,    0.0,    6.2,   0.00,   0.00, 1003.7,   84.1, -999.0
23-04-2022, 00:43:19,     56,    0.4,    6.3,   0.00,   0.00, 1003.7,   84.3, -999.0
23-04-2022, 00:43:29,     55,    0.7,    6.3,   0.00,   0.00, 1003.7,   84.4, -999.0
23-04-2022, 00:43:38,     55,    0.0,    6.2,   0.00,   0.00, 1003.6,   84.1, -999.0
23-04-2022, 00:43:49,     58,    0.0,    6.3,   0.00,   0.00, 1003.7,   84.2, -999.0
23-04-2022, 00:43:59,     58,    0.0,    6.2,   0.00,   0.00, 1003.6,   84.0, -999.0
23-04-2022, 00:44:08,     58,    0.0,    6.2,   0.00,   0.00, 1003.6,   84.0, -999.0
23-04-2022, 00:44:18,     60,    0.0,    6.2,   0.00,   0.00, 1003.6,   84.0, -999.0
23-04-2022, 00:44:29,     60,    0.0,    6.3,   0.00,   0.00, 1003.6,   84.0, -999.0
23-04-2022, 00:44:40,     60,    0.0,    6.3,   0.00,   0.00, 1003.6,   84.1, -999.0
23-04-2022, 00:44:48,     31,    0.0,    6.3,   0.00,   0.00, 1003.7,   84.2, -999.0
23-04-2022, 00:44:58,     31,    0.0,    6.3,   0.00,   0.00, 1003.6,   84.1, -999.0
23-04-2022, 00:45:08,      9,    1.6,    6.3,   0.00,   0.00, 1003.8,   84.2, -999.0
23-04-2022, 00:45:18,      9,    2.9,    6.4,   0.00,   0.00, 1003.8,   84.1, -999.0
23-04-2022, 00:45:28,    336,    1.8,    6.2,   0.00,   0.00, 1003.7,   84.0, -999.0
23-04-2022, 00:45:38,    335,    0.1,    6.2,   0.00,   0.00, 1003.6,   83.7, -999.0
23-04-2022, 00:45:48,    339,    0.0,    6.2,   0.00,   0.00, 1003.6,   83.7, -999.0
23-04-2022, 00:45:58,     57,    1.7,    6.3,   0.00,   0.00, 1003.7,   84.2, -999.0
23-04-2022, 00:46:08,     22,    1.2,    6.3,   0.00,   0.00, 1003.8,   84.2, -999.0
23-04-2022, 00:46:18,     23,    0.4,    6.3,   0.00,   0.00, 1003.7,   84.3, -999.0
23-04-2022, 00:46:28,     22,    0.2,    6.3,   0.00,   0.00, 1003.7,   84.2, -999.0
23-04-2022, 00:46:38,     22,    0.0,    6.2,   0.00,   0.00, 1003.6,   83.9, -999.0